Location: Newark
(30.1000°N, 109.4667°E)
Time: 20:50:44
(UTC+00:00)

SR - Pass Details

Date: 23 February 2020
Orbit: 578 x 877 km, 66.7° (Epoch: 09 April)

Event Time Altitude Azimuth Distance (km) Brightness Sun altitude
Rises 15:43:20 0° 357° (N) 3,223 - -63.7°
Reaches altitude 10° 15:47:23 10° 27° (NNE) 2,213 - -64.3°
Maximum altitude 15:49:23 12° 50° (NE) 2,022 - -64.6°
Drops below altitude 10° 15:51:19 10° 74° (ENE) 2,130 - -64.8°
Sets 15:55:01 0° 105° (ESE) 2,966 - -65.3°
